Location: DaVinci Observatory
(43.1080°N, 78.6453°W)
Time: 01:47:36
(UTC-04:00)

Tiangong 2 - Pass Details

Date: 16 October 2017
Orbit: 388 x 392 km, 42.8° (Epoch: 16 October)

Event Time Altitude Azimuth Distance (km) Brightness Sun altitude
Exits shadow 06:13:06 34° 266° (W) 665 1.7 -14.7°
Maximum altitude 06:14:19 70° 191° (S) 416 1.1 -14.5°
Drops below altitude 10° 06:17:30 10° 107° (ESE) 1,419 5.2 -13.9°
Sets 06:19:35 0° 105° (ESE) 2,274 6.6 -13.5°
